Location: Newark
(41.6500°N, 71.4833°W)
Time: 00:56:37
(UTC+00:00)

Transit 2A Rocket - Pass Details

Date: 26 January 2020
Orbit: 591 x 911 km, 66.7° (Epoch: 20 February)

Event Time Altitude Azimuth Distance (km) Brightness Sun altitude
Rises 08:24:01 0° 166° (SSE) 2,849 - -40.9°
Reaches altitude 10° 08:27:04 10° 143° (SE) 1,927 - -40.4°
Maximum altitude 08:29:34 15° 107° (ESE) 1,603 - -39.9°
Drops below altitude 10° 08:32:04 10° 71° (ENE) 1,925 - -39.5°
Exits shadow 08:32:10 10° 70° (ENE) 1,947 7.8 -39.5°
Sets 08:35:06 0° 49° (NE) 2,844 8.6 -38.9°
